Location: Mason
(37.5237°N, 89.2543°W)
Time: 07:22:11
(UTC+00:00)

Cosmos 1943 Rocket - Pass Details

Date: 24 January 2021
Orbit: 810 x 845 km, 71.0° (Epoch: 08 March)

Event Time Altitude Azimuth Distance (km) Brightness Sun altitude
Rises 12:34:32 0° 338° (NNW) 3,403 5.0 -6.7°
Reaches altitude 10° 12:36:59 10° 339° (NNW) 2,468 4.3 -6.2°
Maximum altitude 12:42:40 86° 68° (ENE) 852 2.3 -5.2°
Drops below altitude 10° 12:48:20 10° 158° (SSE) 2,457 5.3 -4.1°
Sets 12:50:46 0° 159° (SSE) 3,386 6.0 -3.7°
